Find Local Weather

World > North America > United States > Illinois

Hawthorne School, Illinois Regional Weather

Lat: 41.88N, Lon: 88.07W
Wx Zone: ILZ013
Feedback
Expires:201807231400;;926759
ASUS43 KLOT 231308
RWRIL 

ILLINOIS REGIONAL WEATHER ROUNDUP
NATIONAL WEATHER SERVICE CHICAGO/ROMEOVILLE IL
800 AM CDT MON JUL 23 2018

NOTE: "FAIR" INDICATES FEW OR NO CLOUDS BELOW 12,000 FEET WITH NO
SIGNIFICANT WEATHER AND/OR OBSTRUCTIONS TO VISIBILITY.

* THESE STATIONS ARE NOT UNDER NWS QUALITY CONTROL. THEY ALSO MAY NOT
  REPORT WEATHER SUCH AS PRECIPITATION OR FOG.


ILZ005-006-012>014-019>023-231400-
NORTHEAST ILLINOIS
  
CITY           SKY/WX    TMP DP  RH WIND       PRES   REMARKS
CHICAGO-OHARE  FAIR      70  61  73 N9        29.94R                  
CHICAGO-MIDWAY FAIR      71  62  73 N8        29.93R                  
AURORA         FAIR      68  64  87 NW7       29.95S                  
LANSING*       FAIR      70  65  85 N3        29.93S                  
JOLIET*        FAIR      69  63  81 N3        29.95S                  
WAUKEGAN       FAIR      68  63  84 VRB6      29.94R                  
DUPAGE AIRPORT FAIR      69  63  81 NW6       29.94S                  
KANKAKEE*      FAIR      68  64  88 NW7       29.95R                  
WHEELING       FAIR      70  64  81 NW7       29.95R                  
MORRIS*        FAIR      67  63  87 CALM      29.95S                  
ROMEOVILLE*    FAIR      69  63  81 NW7       29.95S                  
NORTHERLY ISL    N/A     70  61  73 NW8         N/A                   
$$


SKY/WX - Weather  TMP - Temperature  DP - Dewpoint  RH - Relative Humidity
WIND - Wind Direction/Speed PRES - Barometric Pressure